This demonstration page uses our WeatherBlox Daily Observations layout. Learn more.

Left ArrowRight Arrow

30.21309, -93.2044

Hourly Observations for May 15, 2022

Temp ( °F °C ) Dew Point ( °F °C ) Humidity (%) Winds ( mph kmh ) Pressure ( in mb ) Visibility ( mi km ) Precip ( " mm )
12:15 am 00:15 Clear 69 20.8 66 18.8 88 88 SW 5 7 29.97 1015 10 16 0.00 0.00
12:35 am 00:35 Clear 71 21.5 68 19.8 90 90 SW 5 7 29.97 1015 10 16 0.00 0.00
12:55 am 00:55 Clear 74 23.5 69 20.4 83 83 SW 5 7 29.97 1015 10 16 0.00 0.00
1:15 am 01:15 Clear 68 19.9 65 18.6 92 92 Calm 29.97 1015 10 16 0.00 0.00
1:35 am 01:35 Clear 67 19.7 65 18.6 93 93 S 3 6 29.97 1015 10 16 0.00 0.00
1:55 am 01:55 Clear 69 20.7 67 19.6 93 93 SSW 3 6 29.96 1015 10 16 0.00 0.00
2:15 am 02:15 Clear 68 19.8 66 18.8 94 94 S 3 6 29.96 1015 10 16 0.00 0.00
2:35 am 02:35 Clear 68 20.2 66 19 93 93 SSW 3 6 29.95 1014 10 16 0.00 0.00
2:55 am 02:55 Clear 67 19.6 66 18.7 95 95 SSE 3 6 29.95 1014 7 11 0.00 0.00
3:15 am 03:15 Clear with Mist and Fog 68 20 66 19.1 95 95 Calm 29.94 1014 4 6 0.00 0.00
3:35 am 03:35 Mostly Cloudy with Fog 68 19.9 66 19.1 95 95 SSE 3 6 29.94 1014 0 0 0.00 0.00
3:55 am 03:55 Mostly Cloudy with Fog 68 20.2 67 19.4 95 95 Calm 29.95 1014 1 1 0.00 0.00
4:15 am 04:15 Mostly Cloudy with Mist and Fog 69 20.5 68 19.8 96 96 Calm 29.94 1014 1 1 0.00 0.00
4:35 am 04:35 Mostly Cloudy with Fog 68 19.8 66 19.1 96 96 Calm 29.94 1014 0 0 0.00 0.00
4:55 am 04:55 Partly Cloudy with Mist and Fog 69 20.6 68 19.9 96 96 Calm 29.94 1014 5 8 0.00 0.00
5:15 am 05:15 Clear with Mist and Fog 69 20.5 68 19.8 96 96 Calm 29.95 1014 5 8 0.00 0.00
5:35 am 05:35 Clear with Mist and Fog 66 18.7 64 17.8 95 95 Calm 29.95 1014 4 6 0.00 0.00
6:00 am 06:00 Mostly Clear 66 19 64 18 94 94 Calm 29.95 1014 10 16 0.00 0.00
6:53 am 06:53 Mostly Sunny 68 20 66 19 94 94 Calm 29.97 1015 7 11 0.00 0.00
7:51 am 07:51 Mostly Sunny 73 23 72 22 94 94 Calm 30.00 1016 10 16 0.00 0.00
8:47 am 08:47 Partly Cloudy 81 27 70 21 70 70 W 12 19 30.01 1016 10 16 0.00 0.00
9:55 am 09:55 Mostly Cloudy 82 28 70 21 66 66 WNW 14 22 30.02 1017 10 16 0.00 0.00
10:45 am 10:45 Mostly Cloudy 82 28 70 21 66 66 WNW 14 22 30.02 1017 10 16 0.00 0.00
11:45 am 11:45 Mostly Cloudy 84 29 66 19 55 55 W 8 13 30.00 1016 10 16 0.00 0.00
12:50 pm 12:50 Mostly Cloudy 86 30 66 19 52 52 W 15 24 29.98 1015 10 16 0.00 0.00
1:45 pm 13:45 Mostly Cloudy 88 31 64 18 46 46 W 8 13 29.97 1015 10 16 0.00 0.00
2:51 pm 14:51 Mostly Cloudy 90 32 64 18 43 43 SSW 9 15 29.93 1014 10 16 0.00 0.00
3:55 pm 15:55 Mostly Cloudy 90 32 66 19 46 46 SSW 14 22 29.91 1013 10 16 0.00 0.00
4:52 pm 16:52 Partly Cloudy 88 31 70 21 55 55 SSW 13 20 29.89 1012 10 16 0.00 0.00
5:53 pm 17:53 Partly Cloudy 88 31 72 22 59 59 SSW 13 20 29.89 1012 10 16 0.00 0.00
6:51 pm 18:51 Partly Cloudy 84 29 72 22 66 66 SW 12 19 29.89 1012 10 16 0.00 0.00
7:52 pm 19:52 Mostly Sunny 82 28 70 21 66 66 SSW 15 24 29.90 1013 10 16 0.00 0.00
8:53 pm 20:53 Mostly Clear 81 27 72 22 74 74 SSW 8 13 29.91 1013 10 16 0.00 0.00
9:55 pm 21:55 Mostly Clear 79 26 72 22 79 79 SW 8 13 29.93 1014 10 16 0.00 0.00
10:15 pm 22:15 Clear 79 25.9 71 21.9 79 79 SW 7 11 29.93 1014 10 16 0.00 0.00
10:35 pm 22:35 Clear 79 25.9 72 22 79 79 WSW 6 9 29.94 1014 10 16 0.00 0.00
10:55 pm 22:55 Clear 78 25.6 72 22 81 81 SSW 6 9 29.94 1014 10 16 0.00 0.00
11:15 pm 23:15 Clear 78 25.5 72 22 81 81 WSW 5 7 29.95 1014 10 16 0.00 0.00
11:35 pm 23:35 Clear 78 25.5 72 22.1 82 82 SW 5 7 29.95 1014 10 16 0.00 0.00
11:55 pm 23:55 Clear 74 23.6 71 21.5 88 88 S 5 7 29.95 1014 10 16 0.00 0.00

Powered by AerisWeather